[ hide orbit diagram ]
For accurate long-term ephemerides, please instead use our Horizons system.This orbit viewer was implemented using two-body methods, and hence should not be used for determining accurate long-term trajectories (over several years or decades) or planetary encounter circumstances.
Orbital Elements at Epoch 2459000.5 (2020-May-31.0) TDB
Reference: JPL 20 (heliocentric ecliptic J2000)
Element | Value | Uncertainty (1-sigma) | Units |
e | .35011065921687 | 9.6602e-08 | |
a | 2.520811449322316 | 8.4029e-09 | au |
q | 1.638248491038647 | 2.4508e-07 | au |
i | 14.93363668646774 | 6.632e-06 | deg |
node | 215.2798930601914 | 2.2822e-05 | deg |
peri | 184.5234729073916 | 2.7886e-05 | deg |
M | 35.67322980073501 | 1.1898e-05 | deg |
tp | 2458855.639859648066 (2020-Jan-07.13985965) | 4.8223e-05 | TDB |
period | 1461.870731021435 4.00 | 7.3095e-06 2.001e-08 | d yr |
n | .2462598042088589 | 1.2313e-09 | deg/d |
Q | 3.403374407605985 | 1.1345e-08 | au |
|
| | Orbit Determination Parameters
Additional Information
|
[ show covariance matrix ]
Physical Parameter Table
Parameter |
Symbol |
Value |
Units |
Sigma |
Reference |
Notes |
absolute magnitude |
H |
16.7 |
|
n/a |
MPO352875 |
|
|
306479 Tyburhoe | Discovered 1999 Sept. 29 by the Catalina Sky Survey. |
Ty Burhoe (b. 1964) is a tabla player, composer, producer, and teacher whose wide-ranging musical collaborations have opened new stylistic frontiers for the tabla. His generosity sharing his explorations of the instrument has inspired many people to learn the tabla as a path for self-discovery and collaborative creation. |
NOTE: some special characters may not display properly (any characters within {} are an attempt to place the proper accent above a character) |
Reference: MPC batch dated 2020-08-07 | Last Updated: 2020-08-24 |
|
[ show close-approach data ]
|